Temperature
21 21 21 21 24 24 23 22 23 22 22 21 21 21 22 21 21 20 17 17 17 17 16 17 17 17 17 17 17 17 17 17 17 18 17 17 17 18 18 18 18 17 17 18 18 18 18 18 18
21 21 21 23 24 24 22 22 22 22 22 21 21 21 21 20 19 18 17 16 16 16 16 16 17 17 17 17 17 17 17 17 17 17 17 17 17 17 17 17 17 17 17 17 17 18 17 17 17
21 21 22 24 24 23 22 22 22 22 21 21 21 21 20 19 18 17 17 16 16 16 16 16 17 17 17 17 17 17 17 17 17 17 17 17 17 17 17 17 17 17 17 17 17 17 17 17 17
21 22 23 24 23 22 22 22 22 22 21 21 21 21 19 18 17 17 17 16 16 16 16 16 17 17 17 17 17 17 17 17 17 17 17 17 17 17 17 17 17 17 17 17 17 17 17 17 17
21 23 24 23 22 22 23 22 22 23 22 21 21 21 19 17 17 17 17 17 17 16 16 16 17 17 17 17 17 17 17 17 17 17 17 17 17 17 17 17 17 17 17 17 17 17 17 17 17
22 24 24 23 22 22 22 22 22 22 22 21 21 21 19 17 17 17 16 16 16 16 16 16 17 17 17 17 17 16 17 17 17 17 17 17 17 17 16 17 16 16 16 16 17 16 17 17 17
23 24 23 23 22 22 22 22 22 22 22 21 21 21 19 17 17 16 16 16 16 16 16 16 16 16 16 17 16 16 16 16 17 17 17 16 17 16 16 16 16 16 16 16 16 16 16 16 17
22 24 23 23 22 22 22 21 21 21 21 20 20 21 19 17 16 16 16 16 16 16 16 16 16 16 16 16 16 16 16 16 16 16 16 16 16 16 16 16 16 16 16 16 16 16 16 16 16
22 24 23 23 22 22 22 22 21 20 20 20 19 19 18 17 16 17 17 17 17 16 16 16 16 16 16 16 16 16 16 16 16 16 16 16 16 16 16 16 16 16 16 16 16 16 16 16 16
23 23 23 23 23 23 22 22 21 21 21 20 19 18 17 17 17 17 17 17 17 16 16 16 16 16 16 16 16 16 16 16 16 16 16 16 16 16 16 16 16 16 16 16 16 16 16 16 15
23 23 23 22 22 22 22 21 21 22 21 21 20 18 17 17 17 17 17 17 16 16 16 16 16 16 16 16 16 16 16 16 16 15 16 15 15 16 15 15 15 15 15 15 15 15 15 15 15
23 22 22 22 21 22 22 21 21 21 21 20 19 18 18 17 17 17 17 17 16 16 16 16 16 16 16 16 16 16 16 16 16 15 15 15 15 15 15 15 15 15 15 15 15 15 15 15 15
23 22 21 21 21 21 21 21 21 20 19 19 18 18 17 17 17 17 17 17 16 16 16 16 16 16 16 16 16 16 16 15 15 15 15 15 15 15 15 15 15 15 15 15 15 15 15 15 15
22 22 21 21 21 21 21 21 21 20 19 19 18 18 18 17 17 17 17 16 16 16 16 16 16 16 16 16 16 16 16 15 15 15 15 15 15 15 15 15 15 15 15 15 15 15 15 15 15
22 22 22 22 21 21 21 21 21 19 19 19 18 18 17 17 17 17 17 16 16 16 16 16 15 15 15 15 15 15 15 15 15 15 15 15 15 15 15 15 15 15 14 14 14 14 14 14 14
23 23 22 22 22 21 22 21 21 19 19 19 18 18 17 17 17 17 16 16 16 16 16 15 15 15 15 15 15 15 15 15 15 15 15 15 15 15 15 14 14 14 14 14 14 14 14 14 14
23 23 22 22 22 22 22 22 21 19 19 19 19 18 18 17 17 16 16 16 16 16 16 15 15 15 15 15 15 15 15 15 15 15 15 15 15 15 15 14 14 14 14 14 14 14 14 14 14
23 23 22 22 22 22 22 22 21 19 19 20 19 19 18 18 17 16 16 16 16 16 15 15 15 15 15 15 15 15 15 15 15 15 15 15 15 15 14 14 14 14 14 14 14 14 14 14 14
23 23 22 22 22 22 22 22 22 20 19 20 19 19 18 18 17 16 16 16 15 15 15 15 15 15 15 15 15 15 15 15 15 15 15 14 14 14 14 14 14 14 14 14 14 14 14 13 13
23 23 22 22 22 22 22 22 22 21 20 20 20 19 19 18 17 16 16 16 15 15 15 15 15 15 14 15 14 14 14 14 14 14 14 14 14 14 14 14 14 14 14 14 14 13 13 13 13
23 23 23 22 22 22 22 22 22 22 20 19 19 19 19 18 17 17 16 15 15 15 15 15 15 15 14 14 14 14 14 14 14 14 14 14 14 14 14 14 14 14 13 13 13 13 13 13 13
22 22 22 22 22 22 22 22 23 22 21 20 19 19 18 18 17 16 16 16 15 15 15 15 15 15 14 14 14 14 14 14 14 14 14 14 14 14 14 14 14 13 13 13 13 13 13 13 13
22 22 22 22 22 22 22 22 23 22 22 22 20 19 18 18 17 16 16 15 15 15 15 15 15 15 14 14 14 14 14 14 14 14 14 14 14 14 14 14 14 13 13 13 13 13 13 13 13
21 22 22 22 22 21 22 22 22 22 22 22 21 20 18 18 17 16 16 15 15 15 15 15 15 14 14 14 14 14 14 14 14 14 14 14 14 14 14 14 13 13 13 13 13 13 13 13 13
22 22 22 21 21 22 22 21 22 22 22 21 21 20 19 18 17 16 16 15 15 14 14 14 14 14 14 14 14 14 14 14 14 14 13 14 14 14 14 13 13 13 13 13 13 13 13 13 13
22 22 22 21 21 22 21 21 22 21 20 20 20 19 18 18 17 16 16 15 15 14 14 14 14 14 14 14 14 14 14 14 14 13 13 13 13 13 13 13 13 13 13 13 13 13 13 13 12
22 22 22 22 21 21 22 22 22 21 20 20 19 19 18 17 17 16 15 15 15 15 14 14 14 14 14 14 14 14 14 13 13 13 13 13 13 13 13 13 13 13 13 13 13 12 12 12 12
22 22 22 21 20 21 21 21 22 21 20 20 19 19 18 17 16 16 15 15 15 15 14 14 14 14 14 14 14 13 13 13 13 13 13 13 13 13 13 13 13 13 13 13 13 12 12 12 12
21 21 21 21 21 21 21 21 21 21 20 20 19 18 17 17 16 16 15 15 14 14 14 14 14 14 14 13 13 13 13 13 13 13 13 13 13 13 13 13 13 13 13 13 12 12 12 12 12
21 21 21 21 21 21 21 21 20 20 20 19 18 17 17 16 15 15 14 14 14 14 14 14 14 14 14 13 13 13 13 13 13 13 13 13 13 13 13 13 13 13 13 12 12 12 12 12 12
Wind_Speed
2 2 2 2 2 4 6 4 4 4 3 5 5 4 6 7 5 5 4 4 4 4 4 5 6 7 7 8 9 10 11 11 11 11 12 12 11 11 10 10 10 11 11 11 11 11 11 11 12
1 1 1 1 1 5 6 4 5 5 5 5 5 5 6 6 5 5 3 3 3 4 4 6 7 7 7 8 10 11 11 11 11 12 12 12 12 11 11 11 11 11 11 11 11 11 11 11 12
1 1 1 1 3 4 6 6 7 6 5 3 3 4 4 5 4 3 4 3 4 5 6 7 7 8 8 9 10 11 12 12 12 12 12 13 12 12 12 12 11 12 12 12 12 11 11 11 11
1 1 1 4 8 7 6 6 6 6 5 3 3 5 5 5 3 4 5 4 5 6 6 8 8 9 9 10 11 12 12 12 12 12 13 13 12 12 12 12 12 12 12 12 12 12 12 11 11
0 1 4 7 8 6 6 5 4 5 4 4 4 6 6 5 6 6 5 5 5 6 6 8 9 9 9 10 11 12 12 13 13 14 14 13 13 13 12 12 12 12 12 12 12 12 12 12 12
1 2 5 7 8 7 6 4 4 6 6 5 5 6 6 6 6 5 5 5 5 6 6 8 9 9 10 10 11 12 12 13 13 13 14 14 13 13 13 13 13 13 13 12 12 12 13 12 11
1 3 5 8 8 6 5 4 4 5 5 4 3 4 6 6 5 5 5 5 5 6 6 6 7 9 9 10 11 11 12 13 13 13 13 13 13 13 13 12 12 13 13 13 12 12 12 12 11
1 3 7 6 7 6 5 4 3 3 5 4 2 3 5 6 6 6 6 6 6 5 5 6 6 7 8 9 11 11 12 12 12 13 13 12 12 12 12 12 13 13 13 12 12 12 12 11 11
1 4 6 5 5 6 6 5 4 3 5 4 3 4 6 8 7 7 6 6 5 5 5 5 6 6 7 8 9 9 10 10 8 10 9 7 8 9 10 13 13 13 13 13 13 12 12 11 11
1 4 5 4 5 6 6 4 4 4 5 5 6 6 8 8 7 6 5 5 5 5 5 5 5 6 6 6 6 6 7 6 7 7 7 7 8 9 10 13 14 13 12 12 12 10 8 6 8
3 4 5 5 5 6 6 4 3 4 3 3 5 7 8 7 6 5 5 4 4 4 4 4 4 5 5 4 4 5 5 5 6 6 7 6 7 7 7 7 8 9 8 9 8 7 8 8 7
4 4 4 5 5 5 5 4 3 2 2 4 5 8 8 7 6 5 4 4 4 4 4 3 3 4 4 4 4 4 4 4 5 5 6 5 5 6 7 6 7 6 6 7 7 6 8 8 8
5 4 4 4 5 5 6 4 3 3 3 5 7 8 7 6 5 4 4 3 4 4 3 3 2 2 3 3 3 4 4 4 5 5 5 6 5 6 6 6 6 7 6 6 6 6 7 7 8
5 6 6 5 5 5 5 4 3 3 5 7 7 7 6 5 4 4 3 3 3 3 3 3 3 2 2 3 3 3 4 4 4 4 5 6 5 5 5 6 6 6 6 6 6 7 6 6 6
7 7 5 3 3 3 4 2 3 4 6 6 6 6 5 4 4 3 3 3 3 3 3 3 3 3 2 3 3 3 3 4 4 4 5 6 6 5 5 5 5 5 6 6 6 7 6 6 6
5 5 4 3 3 3 4 3 3 5 6 6 5 5 4 4 3 2 2 2 3 3 3 4 3 3 3 3 3 3 3 3 4 4 4 5 5 6 5 4 4 5 5 5 5 5 5 5 5
6 5 5 4 4 4 5 3 5 6 6 6 5 5 5 4 3 2 2 2 2 3 4 4 4 4 3 3 3 3 3 3 3 4 4 4 5 5 4 4 4 4 4 4 4 4 4 5 5
6 5 5 4 4 5 6 4 4 6 7 6 6 5 5 4 4 3 2 2 2 2 4 4 5 4 4 3 3 3 3 3 3 3 3 4 3 4 4 3 4 4 3 3 4 5 4 4 4
4 5 5 3 3 5 6 6 5 6 7 7 6 6 5 5 4 3 3 2 2 3 4 5 5 5 5 4 3 3 3 3 2 2 3 3 3 3 3 2 3 3 3 3 3 4 4 3 3
6 6 5 3 3 4 5 6 5 6 8 7 7 6 6 5 4 4 3 3 3 3 4 5 5 5 5 4 3 3 3 2 2 2 2 2 2 2 2 2 2 2 2 2 3 2 2 2 1
7 6 5 3 3 4 4 5 6 6 6 6 6 6 6 6 6 5 4 4 4 4 4 5 5 5 6 5 4 3 3 2 3 2 2 1 2 2 1 1 1 2 2 2 1 1 1 1 1
7 5 5 5 5 4 5 5 5 6 6 6 7 7 6 6 6 5 5 5 5 4 4 5 5 6 6 6 5 5 4 3 3 2 2 2 2 1 1 1 1 1 1 1 1 1 0 0 1
4 3 5 6 6 6 6 6 4 5 6 6 7 7 7 6 6 6 6 5 5 4 4 5 5 5 6 6 6 5 4 3 2 2 2 2 2 1 1 1 1 1 1 1 1 0 0 0 1
5 5 5 5 6 7 6 7 4 3 5 4 5 6 7 7 6 6 6 5 5 4 4 4 5 5 5 6 6 6 5 4 3 3 3 2 2 1 2 1 1 1 1 1 1 0 0 0 1
7 7 5 6 6 5 3 5 4 0 1 3 3 4 6 6 6 6 6 6 6 5 5 5 6 5 6 6 6 6 5 5 4 4 3 3 3 2 3 3 2 2 1 1 1 1 1 1 0
9 9 6 5 5 4 4 6 2 1 1 2 2 2 4 6 6 6 6 6 6 6 6 6 6 6 6 6 5 5 5 4 3 4 3 3 3 3 3 3 3 2 2 2 2 2 2 1 1
8 8 6 5 5 6 5 4 4 2 1 1 0 1 3 4 5 5 5 6 6 6 7 7 7 6 6 6 6 5 5 5 4 4 4 3 3 3 3 3 3 3 3 3 3 2 2 2 1
6 6 6 6 5 6 5 6 4 2 2 1 1 1 2 3 4 5 5 5 5 6 6 6 7 7 6 6 6 5 5 5 5 4 4 4 4 4 4 4 3 3 3 4 4 3 2 2 2
7 8 7 6 6 6 5 3 0 1 1 1 1 1 2 2 3 4 5 5 5 5 5 6 6 6 6 6 6 6 6 6 5 5 5 5 4 4 5 5 4 4 4 4 4 4 3 3 3
7 9 10 9 8 7 7 3 3 0 0 1 1 1 1 2 2 3 4 5 5 5 5 5 6 6 6 6 6 6 6 6 5 5 5 5 5 5 5 5 4 4 4 4 4 4 4 4 3
Wind_Direction
204 230 228 220 183 108 89 87 99 105 86 72 67 68 67 49 34 65 64 45 32 38 44 57 45 45 50 54 61 62 60 60 61 62 66 78 86 88 90 91 92 91 90 90 92 92 90 92 92
198 221 228 234 155 120 97 94 96 87 107 112 89 81 75 67 55 80 82 52 49 50 48 53 54 54 57 61 64 64 60 60 61 63 67 72 77 81 85 86 89 89 88 88 89 91 89 90 90
145 264 349 96 100 96 107 102 99 101 105 115 97 67 59 68 71 77 77 83 74 62 54 62 56 60 70 69 65 64 62 62 63 63 67 70 74 77 80 82 82 85 85 86 88 88 88 88 89
224 166 96 100 97 80 97 112 121 122 104 87 104 91 81 63 66 81 93 89 82 75 64 67 60 66 71 71 69 67 64 63 63 64 67 69 73 75 80 82 81 82 82 83 86 88 89 87 88
229 141 122 111 99 94 97 103 124 114 102 94 99 95 92 78 83 95 96 90 83 79 74 72 66 67 71 72 73 68 66 66 65 64 66 67 71 73 76 80 81 82 82 83 84 85 85 84 83
141 157 136 121 110 106 103 108 119 108 102 101 103 101 94 96 97 97 98 90 80 78 77 81 80 71 69 70 70 69 68 67 66 64 63 63 64 68 71 76 77 76 77 79 82 83 83 80 77
116 126 122 125 123 117 108 121 122 113 105 97 104 102 110 108 100 105 103 95 85 81 81 80 84 85 82 75 71 71 71 68 66 66 66 66 65 67 70 74 80 80 79 78 80 83 83 81 78
83 132 128 128 132 118 118 121 105 105 98 98 102 100 114 128 125 118 110 101 92 85 81 79 80 82 83 82 74 70 71 68 67 67 66 68 71 73 75 77 80 82 81 80 80 82 86 82 78
160 138 133 134 136 126 135 132 112 103 116 109 88 78 102 130 136 129 118 107 96 88 83 81 82 82 81 79 83 83 81 74 76 74 67 66 70 72 79 76 82 82 80 80 79 81 84 87 83
129 126 119 117 125 129 138 132 139 142 126 119 113 104 120 138 141 136 128 119 110 102 91 84 88 88 85 80 83 80 79 75 67 65 62 58 62 66 75 87 86 85 85 85 80 82 88 84 81
99 112 117 121 124 130 133 123 137 155 133 132 140 138 141 145 144 140 129 118 110 106 98 91 94 95 90 87 80 75 74 72 66 62 63 64 68 74 78 85 91 89 90 85 87 87 75 72 70
116 105 123 128 132 139 136 126 116 117 86 101 134 144 148 151 152 152 144 131 124 112 108 98 95 96 93 92 86 81 78 74 70 66 65 65 67 67 73 78 78 77 77 77 75 74 75 72 72
131 117 107 119 129 129 122 120 108 98 92 113 131 143 148 152 153 154 150 147 142 138 133 121 111 94 92 92 89 90 82 77 79 71 67 70 70 70 75 77 76 74 77 80 76 73 73 71 67
128 122 118 125 128 129 125 117 130 117 126 131 138 146 150 152 157 158 159 161 163 161 149 143 137 117 116 111 106 93 92 89 80 74 70 73 75 75 75 76 75 73 74 74 76 76 73 71 69
136 132 130 143 151 153 158 142 147 134 147 146 149 149 148 152 163 176 174 178 177 174 165 149 136 130 127 116 108 103 97 93 86 79 73 75 74 76 79 77 79 79 79 79 77 75 72 74 74
165 173 171 150 162 172 196 176 148 156 166 161 160 159 162 163 170 167 174 186 182 179 165 152 152 146 133 127 126 114 104 94 89 82 77 77 78 76 79 79 79 82 86 86 83 76 77 75 72
189 189 182 167 184 188 209 202 163 173 181 175 172 175 175 170 170 164 170 182 189 185 171 164 159 152 142 134 128 114 108 103 94 89 83 78 78 80 85 78 80 85 88 87 86 79 73 75 72
187 190 188 189 181 197 213 221 172 179 192 190 185 185 183 180 177 172 171 178 186 188 174 164 161 160 144 141 139 120 111 107 99 92 85 78 79 79 83 89 87 89 94 93 94 90 81 75 76
208 207 207 197 184 213 225 229 203 187 200 204 199 194 194 193 181 169 169 170 179 185 179 170 171 164 157 152 155 143 143 131 114 98 90 93 95 94 88 89 92 88 89 94 104 101 95 84 81
209 212 212 187 179 223 232 239 220 199 204 208 206 203 203 198 184 175 180 178 185 180 186 182 177 175 168 159 157 156 150 148 130 117 107 105 105 103 100 99 101 105 101 103 103 106 95 77 32
215 223 221 204 180 205 241 235 206 196 203 211 218 216 208 202 198 189 190 187 189 190 192 190 189 182 178 165 152 142 147 162 152 147 136 120 113 115 112 94 106 110 118 108 110 118 104 77 59
223 218 224 215 226 231 237 258 214 206 205 210 214 213 210 204 204 198 195 196 197 199 200 198 192 188 181 175 168 174 185 182 176 167 157 155 140 133 138 126 123 121 109 114 141 107 79 35 62
214 191 210 225 241 250 234 255 227 194 219 219 211 210 209 204 203 202 202 202 201 197 199 203 193 186 183 183 181 192 196 190 173 173 171 175 156 161 170 166 157 152 142 135 110 90 326 331 360
174 180 190 212 234 246 236 244 252 207 229 224 211 208 207 203 201 201 201 203 201 192 193 201 197 187 184 189 189 195 194 190 179 180 188 194 183 190 188 182 190 186 177 164 151 169 188 321 10
202 213 218 219 226 242 192 237 251 52 249 254 236 211 202 197 196 195 194 200 200 196 195 196 196 193 191 194 198 200 201 198 196 192 197 203 204 205 207 200 198 185 177 183 187 204 210 204 229
208 220 237 249 251 252 210 236 218 96 312 280 262 217 193 192 196 198 198 200 200 201 199 197 196 195 195 198 202 203 198 203 205 203 201 211 220 216 206 204 198 193 191 192 191 208 202 212 207
205 214 243 260 260 259 230 230 227 183 223 236 218 183 187 195 200 204 202 202 202 202 202 199 196 194 195 200 201 202 202 206 210 210 209 212 218 212 202 201 199 193 194 199 199 212 208 213 227
226 206 212 233 246 252 245 241 240 205 221 215 220 211 207 201 203 205 202 201 202 203 204 202 201 199 198 203 202 201 208 210 214 213 213 215 211 206 201 198 197 192 191 201 207 217 219 220 213
194 203 218 231 247 257 259 242 86 302 295 266 264 246 211 207 209 206 204 205 202 202 202 205 206 203 203 207 208 203 206 210 210 213 216 215 210 204 204 201 201 197 198 203 201 213 217 228 224
226 223 220 230 233 241 261 260 102 67 288 296 316 304 259 227 214 205 202 201 200 203 207 209 210 207 207 208 208 209 207 207 209 213 217 215 209 208 209 201 202 203 207 211 210 217 219 228 234
Height
1498 1497 1495 1498 1499 1500 1508 1510 1508 1510 1511 1514 1515 1514 1515 1516 1518 1525 1525 1522 1522 1521 1520 1518 1517 1516 1515 1514 1512 1511 1510 1509 1508 1507 1505 1504 1505 1506 1506 1507 1508 1508 1509 1509 1510 1510 1510 1511 1512
1499 1497 1498 1498 1497 1506 1513 1510 1511 1512 1514 1516 1516 1517 1517 1520 1522 1524 1524 1523 1523 1522 1521 1520 1518 1517 1516 1515 1514 1513 1512 1511 1510 1509 1508 1507 1507 1508 1509 1509 1509 1510 1510 1511 1511 1512 1512 1513 1513
1499 1498 1500 1497 1501 1507 1513 1512 1512 1515 1516 1516 1517 1519 1520 1523 1524 1525 1525 1524 1524 1523 1522 1521 1519 1518 1517 1517 1516 1515 1514 1513 1512 1511 1511 1510 1510 1510 1510 1511 1511 1512 1512 1513 1513 1513 1514 1514 1515
1500 1502 1502 1501 1508 1509 1510 1512 1514 1515 1517 1518 1518 1520 1523 1526 1526 1526 1525 1525 1525 1524 1524 1522 1520 1519 1519 1519 1518 1517 1516 1516 1515 1514 1513 1513 1512 1512 1512 1512 1513 1513 1514 1514 1514 1515 1515 1515 1516
1502 1502 1501 1507 1510 1511 1512 1514 1515 1515 1516 1519 1519 1520 1524 1527 1527 1527 1527 1527 1527 1526 1525 1524 1522 1521 1521 1520 1520 1519 1518 1518 1517 1516 1515 1515 1514 1514 1514 1514 1515 1515 1515 1515 1516 1516 1517 1517 1517
1503 1501 1504 1511 1512 1513 1514 1516 1516 1516 1518 1520 1521 1522 1526 1528 1528 1528 1528 1528 1528 1527 1527 1526 1524 1524 1523 1522 1521 1521 1520 1520 1519 1518 1517 1517 1516 1516 1516 1516 1516 1516 1517 1517 1517 1518 1518 1518 1518
1504 1501 1505 1509 1513 1514 1516 1517 1517 1518 1519 1522 1522 1523 1526 1528 1529 1529 1529 1529 1529 1529 1528 1528 1527 1526 1525 1524 1524 1523 1522 1522 1521 1520 1519 1519 1518 1518 1517 1517 1517 1518 1518 1519 1519 1519 1519 1520 1520
1505 1504 1507 1509 1513 1515 1517 1518 1519 1520 1521 1524 1524 1524 1527 1529 1529 1530 1530 1530 1530 1530 1530 1529 1529 1529 1528 1527 1526 1525 1524 1524 1523 1523 1522 1521 1520 1519 1518 1519 1519 1519 1520 1520 1521 1521 1521 1521 1521
1506 1506 1510 1511 1513 1515 1517 1518 1521 1522 1523 1524 1525 1526 1528 1529 1530 1531 1531 1531 1531 1531 1531 1531 1531 1530 1530 1529 1528 1528 1527 1526 1526 1525 1524 1523 1523 1521 1520 1520 1520 1521 1522 1522 1523 1523 1523 1523 1523
1506 1507 1510 1511 1512 1514 1517 1519 1520 1522 1523 1524 1526 1527 1528 1529 1530 1531 1531 1532 1532 1532 1532 1532 1532 1532 1532 1531 1531 1530 1530 1529 1529 1528 1527 1526 1525 1523 1522 1522 1523 1523 1524 1524 1524 1525 1525 1525 1525
1507 1508 1511 1513 1514 1516 1518 1520 1521 1521 1522 1524 1526 1527 1529 1530 1531 1531 1532 1533 1533 1533 1533 1533 1533 1533 1533 1533 1532 1532 1531 1531 1530 1530 1529 1528 1527 1526 1525 1525 1526 1526 1527 1527 1527 1527 1527 1527 1527
1509 1512 1513 1514 1516 1517 1518 1520 1522 1522 1524 1525 1526 1528 1529 1530 1531 1532 1532 1533 1533 1534 1534 1534 1534 1534 1534 1534 1534 1533 1533 1533 1532 1531 1531 1530 1529 1529 1528 1528 1529 1529 1529 1529 1529 1529 1530 1529 1529
1510 1513 1515 1516 1517 1518 1520 1521 1522 1524 1526 1526 1527 1529 1529 1530 1531 1532 1533 1534 1534 1534 1534 1534 1534 1535 1535 1535 1534 1535 1534 1534 1534 1533 1533 1532 1531 1531 1531 1531 1531 1531 1531 1531 1531 1531 1531 1531 1531
1511 1513 1515 1517 1518 1519 1520 1522 1523 1525 1526 1527 1528 1529 1530 1531 1532 1533 1533 1534 1534 1534 1535 1535 1535 1535 1535 1536 1536 1536 1536 1535 1535 1535 1534 1534 1533 1533 1533 1533 1533 1533 1533 1533 1533 1533 1533 1533 1532
1512 1513 1515 1517 1518 1519 1520 1522 1522 1525 1526 1527 1528 1529 1530 1531 1532 1533 1533 1534 1534 1534 1535 1535 1535 1535 1536 1536 1536 1537 1537 1537 1537 1536 1536 1536 1535 1535 1535 1535 1535 1535 1535 1535 1535 1535 1535 1534 1534
1510 1511 1515 1516 1517 1519 1521 1523 1522 1525 1526 1527 1528 1529 1530 1531 1532 1532 1533 1533 1534 1534 1534 1535 1535 1535 1536 1536 1537 1537 1538 1538 1538 1537 1537 1538 1537 1537 1537 1537 1537 1537 1537 1537 1536 1537 1536 1536 1536
1509 1512 1514 1515 1516 1517 1518 1519 1521 1524 1525 1526 1527 1528 1530 1531 1531 1532 1532 1533 1533 1534 1534 1534 1535 1535 1536 1536 1537 1538 1538 1538 1539 1539 1539 1539 1539 1539 1539 1538 1538 1538 1538 1538 1538 1538 1538 1538 1537
1511 1510 1512 1514 1515 1516 1516 1516 1519 1523 1524 1524 1526 1527 1529 1529 1531 1531 1532 1532 1532 1533 1534 1534 1534 1535 1536 1536 1537 1538 1539 1539 1539 1540 1540 1540 1540 1540 1540 1540 1540 1539 1540 1539 1539 1539 1539 1539 1539
1505 1508 1511 1512 1513 1515 1515 1514 1516 1520 1522 1523 1524 1525 1527 1528 1530 1530 1531 1531 1532 1532 1533 1533 1534 1534 1535 1536 1537 1538 1539 1540 1540 1540 1541 1541 1541 1541 1540 1540 1540 1540 1540 1540 1540 1540 1540 1540 1540
1506 1509 1510 1512 1513 1514 1513 1513 1513 1516 1519 1520 1521 1523 1525 1527 1528 1529 1530 1530 1530 1531 1532 1533 1533 1534 1535 1536 1537 1538 1539 1540 1540 1540 1541 1541 1541 1541 1541 1541 1541 1541 1541 1541 1541 1540 1541 1540 1540
1506 1508 1508 1511 1513 1513 1513 1512 1511 1513 1516 1519 1520 1522 1523 1524 1526 1527 1528 1529 1529 1530 1531 1532 1533 1534 1534 1535 1536 1538 1539 1539 1540 1540 1540 1541 1541 1542 1542 1542 1542 1541 1541 1541 1541 1541 1541 1541 1541
1506 1505 1508 1510 1512 1512 1513 1515 1507 1507 1512 1515 1517 1519 1520 1522 1524 1525 1526 1527 1528 1529 1530 1531 1532 1533 1534 1535 1535 1537 1538 1539 1540 1540 1540 1541 1541 1541 1541 1541 1541 1541 1542 1541 1541 1541 1541 1541 1541
1504 1506 1507 1509 1509 1511 1510 1512 1506 1506 1508 1509 1512 1515 1517 1520 1522 1523 1524 1525 1527 1527 1528 1529 1531 1532 1533 1534 1534 1536 1537 1538 1539 1539 1540 1541 1541 1541 1541 1541 1541 1541 1541 1541 1541 1541 1541 1541 1541
1505 1507 1507 1508 1508 1515 1508 1511 1508 1502 1504 1505 1508 1512 1514 1517 1519 1521 1523 1524 1525 1526 1526 1528 1529 1530 1531 1532 1533 1535 1536 1537 1538 1538 1539 1540 1540 1540 1540 1540 1541 1541 1541 1541 1541 1541 1541 1541 1541
1503 1506 1512 1514 1514 1510 1506 1510 1506 1501 1503 1505 1506 1509 1512 1514 1516 1518 1520 1521 1522 1523 1524 1526 1527 1528 1529 1531 1532 1533 1534 1535 1536 1537 1538 1538 1539 1539 1539 1539 1540 1540 1540 1541 1541 1541 1541 1541 1540
1500 1502 1510 1516 1514 1507 1507 1507 1501 1502 1504 1505 1506 1508 1510 1512 1514 1516 1517 1518 1520 1521 1522 1524 1525 1527 1528 1529 1530 1532 1533 1534 1535 1535 1536 1537 1537 1538 1538 1538 1539 1539 1539 1540 1540 1540 1540 1540 1540
1499 1500 1499 1503 1505 1509 1503 1501 1499 1501 1503 1504 1506 1507 1508 1510 1512 1514 1515 1517 1518 1519 1520 1522 1524 1525 1526 1528 1529 1530 1531 1532 1533 1533 1534 1535 1535 1536 1536 1537 1537 1538 1538 1538 1539 1539 1539 1539 1539
1497 1497 1501 1504 1512 1512 1504 1502 1499 1498 1500 1502 1504 1506 1507 1509 1510 1512 1513 1514 1516 1517 1518 1520 1522 1523 1524 1526 1527 1528 1529 1529 1530 1531 1532 1533 1534 1534 1534 1535 1535 1536 1536 1537 1537 1537 1537 1538 1538
1499 1500 1499 1500 1501 1507 1508 1502 1495 1497 1499 1501 1503 1505 1506 1507 1508 1510 1511 1512 1514 1515 1517 1518 1519 1521 1522 1523 1524 1525 1526 1527 1528 1529 1529 1530 1531 1532 1532 1533 1533 1534 1535 1535 1535 1535 1535 1536 1536
1494 1494 1496 1502 1502 1502 1503 1502 1496 1499 1500 1501 1502 1504 1505 1506 1506 1507 1508 1510 1511 1513 1514 1516 1517 1518 1519 1520 1521 1523 1524 1524 1525 1526 1527 1528 1529 1530 1531 1531 1531 1532 1532 1533 1533 1533 1534 1534 1534